Hourly Data Report for October 25, 2016

All times are specified in Local Standard Time (LST). Add 1 hour to adjust for Daylight Saving Time where and when it is observed.

MONCTON INTL A
NEW BRUNSWICK

46°06'44.000" N
64°40'43.000" W
70.70 m
8103201
71705
YQM

Download Data

Hourly Data (October 2016)
Hourly Data Report for October 25, 2016
Temp Definition
°C
Dew Point Temp Definition
°C
Rel Hum Definition
%
Wind Dir Definition
10's deg

Wind Spd Definition
km/h
Visibility Definition
km
Stn Press Definition
kPa
Hmdx Definition


Wind Chill Definition


Weather Definition


TIME
00:00 Legend Double Dagger 3.3 -1.5 71 24 23 24.1 99.66     LegendNANA
01:00 Legend Double Dagger 3.1 -1.5 72 23 21 24.1 99.67     LegendNANA
02:00 Legend Double Dagger 2.4 -1.6 75 23 17 24.1 99.68     Mostly Cloudy
03:00 Legend Double Dagger 2.1 -1.7 76 24 22 24.1 99.69     LegendNANA
04:00 Legend Double Dagger 1.6 -1.5 80 24 21 24.1 99.73     Snow
05:00 Legend Double Dagger 1.3 -0.9 85 23 18 24.1 99.75     Snow
06:00 Legend Double Dagger 1.2 -1.2 84 22 18 24.1 99.79     LegendNANA
07:00 Legend Double Dagger 1.2 -1.2 84 23 16 24.1 99.85     LegendNANA
08:00 Legend Double Dagger 2.1 -0.3 84 24 27 24.1 99.91     Mostly Cloudy
09:00 Legend Double Dagger 3.5 0.0 78 24 18 24.1 99.92     LegendNANA
10:00 Legend Double Dagger 4.2 0.0 74 25 21 24.1 99.95     LegendNANA
11:00 Legend Double Dagger 3.9 0.6 79 26 22 24.1 99.98     Rain Showers
12:00 Legend Double Dagger 4.4 1.9 84 26 17 24.1 100.00     Rain Showers
13:00 Legend Double Dagger 4.5 1.7 82 27 19 24.1 100.03     Rain
14:00 Legend Double Dagger 4.6 2.3 85 26 22 16.1 100.07     Rain
15:00 Legend Double Dagger 5.1 2.8 85 28 14 24.1 100.11     Rain
16:00 Legend Double Dagger 4.9 2.4 84 25 17 24.1 100.15     Rain
17:00 Legend Double Dagger 4.5 2.7 88 25 12 24.1 100.21     Rain
18:00 Legend Double Dagger 4.4 2.8 89 26 14 16.1 100.30     Rain Showers
19:00 Legend Double Dagger 4.1 2.6 90 27 18 19.3 100.35     Rain Showers
20:00 Legend Double Dagger 3.6 2.7 94 26 13 24.1 100.38     Rain Showers
21:00 Legend Double Dagger 3.8 3.1 95 22 10 24.1 100.45     LegendNANA
22:00 Legend Double Dagger 3.7 3.1 96 24 11 24.1 100.49     LegendNANA
23:00 Legend Double Dagger 3.9 3.3 96 23 8 24.1 100.52     Mostly Cloudy

Notes on Data Quality.

Legend

  • E = Estimated
  • M = Missing
  • NA = Not Available
  • ‡ = Partner data that is not subject to review by the National Climate Archives
Date modified: